Flag for Japan Weather past 2 weeks in Suzuka, Japan

Now
67 °F

Mild.


Feels Like: 67 °F
Forecast: 66 / 77 °F
Wind: 10 mph from Southeast

Location: Tsu

Current Time: Jul 1, 2015 at 4:54:35 AM

Latest Report: Jul 1, 2015 at 4:00 AM


Visibility: N/A

Pressure: 29.41 "Hg

Humidity: 94%

Dew point: 65 °F

Location of SuzukaLocation

Historic Weather in Suzuka — Graph

°F

Suzuka temperature yesterday

Maximum temperature yesterday: 75 °F (at 1:00 PM)
Minimum temperature yesterday: 67 °F (at 11:00 PM)
Average temperature yesterday: 71 °F

Past Weeks' High & Low Weather Summary

 TemperatureHumidityPressure
High81 °F (Jun 23, 5:00 PM)97% (Jun 26, 11:00 PM)29.94 "Hg (Jun 26, 11:00 PM)
Low65 °F (Jun 29, 5:00 AM)50% (Jun 28, 1:00 PM)29.44 "Hg (Jul 1, 3:00 AM)
Average72 °F79%29.75 "Hg
* Reported Jun 16 3:00 AM — Jul 1 3:00 AM, Suzuka, Weather by CustomWeather, © 2015

Note: Actual official high and low records may vary slightly from our data, if they occured in-between our weather recording intervals... More about our weather records

Advertising

Suzuka weather history for previous 24 hours

 ConditionsComfort  
Time TempWeatherWind HumidityBarometerVisibility
3:00 AM
Wed, Jul 1
67 °FMild.8 mph95%29.44 "HgN/A
1:00 AM66 °FMild.14 mph91%29.50 "HgN/A
11:00 PM
Tue, Jun 30
67 °FMild.10 mph90%29.57 "HgN/A
10:00 PM68 °FMild.8 mph91%29.60 "HgN/A
9:00 PM68 °FSprinkles. Overcast.6 mph91%29.60 "Hg5 mi
8:00 PM69 °FMild.6 mph92%29.62 "HgN/A
7:00 PM70 °FMild.12 mph90%29.62 "HgN/A
6:00 PM71 °FMild.9 mph87%29.62 "HgN/A
5:00 PM71 °FMild.9 mph84%29.61 "HgN/A
4:00 PM73 °FMild.10 mph79%29.61 "HgN/A
3:00 PM74 °FOvercast.10 mph75%29.64 "Hg12 mi
2:00 PM75 °FMild.12 mph74%29.64 "HgN/A
1:00 PM75 °FMild.10 mph72%29.67 "HgN/A
12:00 PM75 °FMild.12 mph73%29.69 "HgN/A
11:00 AM73 °FMild.8 mph77%29.72 "HgN/A
10:00 AM72 °FMild.9 mph79%29.72 "HgN/A
9:00 AM69 °FOvercast.6 mph89%29.74 "Hg9 mi
8:00 AM71 °FMild.12 mph85%29.76 "HgN/A
7:00 AM71 °FMild.9 mph85%29.76 "HgN/A
5:00 AM70 °FMild.8 mph84%29.76 "HgN/A
4:00 AM70 °FMild.7 mph85%29.78 "HgN/A
Weather by CustomWeather, © 2015

See weather overviewHow to use our weather pages